Regional Weather Roundup
Issued by NWS Bismarck, ND

Home | Current Version | Previous Version | Text Only | Print | Product List | Glossary On
Versions: 1 2 3 4 5 6 7 8 9 10 11 12 13 14 15 16 17 18 19 20 21 22 23 24 25 26 27 28 29 30 31 32 33 34 35 36 37 38 39 40 41 42 43 44 45 46 47 48 49 50
000
ASUS43 KBIS 230259
RWRBIS

NWR BROADCAST TEXT
NATIONAL WEATHER SERVICE BISMARCK ND
1000 PM CDT TUE JUL 22 2014

NOTE: "FAIR" INDICATES FEW OR NO CLOUDS BELOW 12,000 FEET WITH NO
SIGNIFICANT WEATHER AND/OR OBSTRUCTIONS TO VISIBILITY.


CITY           SKY/WX    TMP DP  RH WIND       PRES   REMARKS
WILLISTON      CLOUDY    77  61  57 E12       30.20R
MINOT          PTCLDY    69  62  78 NE5       30.22S
MINOT AFB      NOT AVBL
BISMARCK       CLOUDY    71  64  78 S6        30.24S
DICKINSON      NOT AVBL
GARRISON         N/A     70  65  84 E8        30.21F
HETTINGER ARPT CLOUDY    67  60  78 E9        30.25R
JAMESTOWN      NOT AVBL
CARRINGTON     FAIR      66  66 100 SE3       30.26R
CROSBY           N/A     66  66 100 E6        30.24R
HARVEY         FAIR      66  63  88 SE5       30.23S
HAZEN          FAIR      70  63  78 E7        30.20F
MANDAN         MOCLDY    70  64  83 SE5       30.25S
RUGBY          FAIR      70  64  83 CALM      30.23R
TIOGA          MOCLDY    68  68 100 E8        30.26S
WATFORD CITY   FAIR      68  63  83 SE6       30.19R
$$

CITY           SKY/WX    TMP DP  RH WIND       PRES   REMARKS
GRAND FORKS    PTCLDY    65  61  87 CALM      30.22R
GRAND FORKS AF NOT AVBL
DEVILS LAKE    CLEAR     68  59  73 E6        30.23R
FARGO          CLEAR     67  58  72 CALM      30.23R
CAVALIER       FAIR      64  61  88 NW3       30.23R
GWINNER        CLEAR     66  63  88 NE3       30.25R
LANGDON        FAIR      63  57  82 E6        30.25R
$$

CITY           SKY/WX    TMP DP  RH WIND       PRES   REMARKS
ABERDEEN       CLEAR     68  61  78 E6        30.23R
MOBRIDGE       MOCLDY    71  64  78 S3        30.26R
BUFFALO          N/A     66  62  87 E20G26    30.18S
RAPID CITY     CLOUDY    73  62  68 NE6       30.23R
GLASGOW        CLEAR     75  51  43 E9        30.19R
SIDNEY         MOCLDY    75  57  53 SE6       30.22R
WOLF POINT     PTCLDY    77  51  40 E7        30.18R
GLENDIVE       PTCLDY    72  59  64 S7        30.23R
MILES CITY     PTCLDY    73  62  68 NE12      30.21R
BAKER          PTCLDY    66 N/A N/A SE13      30.23S
$$

CITY           SKY/WX    TMP DP  RH WIND       PRES   REMARKS
BILLINGS       CLOUDY    66  57  72 NE7       30.23R
GREAT FALLS    MOCLDY    72  56  57 E12       30.15R
$$




USA.gov is the U.S. government's official web portal to all federal, state and local government web resources and services.